Doylestown, PA

2:17 AM EDT on June 29, 2017 (GMT -0400)
Doylestown

Weather History for KDYL - November, 2013

Change the Weather History Date:

Monday, November 18, 2013

  Actual Average (KTTN) Record (KTTN)
Temperature  
Mean Temperature 56 °F -  
Max Temperature 63 °F 51 °F 76 °F (1921)
Min Temperature 46 °F 33 °F 18 °F (1936)
Degree Days  
Heating Degree Days 10    
Growing Degree Days 6 (Base 50)    
Moisture  
Dew Point 44 °F    
Average Humidity 66    
Maximum Humidity 100    
Minimum Humidity 28    
Precipitation  
Precipitation 0.34 in - - ()
Sea Level Pressure  
Sea Level Pressure 29.70 in    
Wind  
Wind Speed 10 mph (WSW)    
Max Wind Speed 20 mph    
Max Gust Speed 37 mph    
Visibility 9 miles    
Events Rain    
Averages and records for this station are not official NWS values.
T = Trace of Precipitation, MM = Missing Value Source: NWS Daily Summary

Daily Weather History Graph

Daily Weather History Graph

Search for Another Location

Airport or City:

Trip Planner

Search our weather history database for the weather conditions in past years. The results will help you decide how hot, cold, wet, or windy it might be!

Date:

Astronomy

Nov. 18, 2013 Rise Set
Actual Time 6:50 AM EST 4:40 PM EST
Civil Twilight 6:20 AM EST 5:10 PM EST
Nautical Twilight 5:47 AM EST 5:43 PM EST
Astronomical Twilight 5:15 AM EST 6:15 PM EST
Moon 5:41 PM EST (11/18) 7:36 AM EST (11/18)
Length of Visible Light 10h 49m
Length of Day
9h 50m
Full, 99% of the Moon is Illuminated
Nov 18
Full
Nov 25
Last Quarter
Dec 2
New
Dec 9
First Quarter
Dec 17
Full

Hourly Weather History & Observations

Time (EST) Temp. Windchill Dew Point Humidity Pressure Visibility Wind Dir Wind Speed Gust Speed Precip Events Conditions
12:54 AM 61.0 °F - 59.0 °F 93% 29.71 in 10.0 mi South 8.1 mph - 0.00 in   Overcast
1:54 AM 61.0 °F - 60.1 °F 97% 29.66 in 10.0 mi South 10.4 mph 19.6 mph 0.02 in   Overcast
2:39 AM 62.1 °F - 61.0 °F 96% 29.64 in 8.0 mi South 12.7 mph 21.9 mph 0.01 in Rain Light Rain
2:54 AM 61.0 °F - 61.0 °F 100% 29.63 in 6.0 mi South 12.7 mph 26.5 mph 0.05 in Rain Heavy Rain
3:35 AM 55.9 °F - 55.9 °F 100% 29.68 in 1.8 mi WNW 19.6 mph 36.8 mph 0.23 in Rain Heavy Rain
3:43 AM 55.0 °F - 54.0 °F 96% 29.67 in 3.0 mi West 12.7 mph 34.5 mph 0.27 in Rain Rain
3:47 AM 55.0 °F - 54.0 °F 96% 29.67 in 7.0 mi WSW 12.7 mph 23.0 mph 0.27 in Rain Light Rain
3:54 AM 55.9 °F - 54.0 °F 93% 29.66 in 10.0 mi WSW 9.2 mph - 0.27 in   Overcast
4:54 AM 55.9 °F - 51.1 °F 84% 29.66 in 10.0 mi WSW 9.2 mph - 0.00 in Rain Light Rain
5:54 AM 55.0 °F - 50.0 °F 83% 29.66 in 10.0 mi SW 5.8 mph - 0.00 in   Overcast
6:54 AM 54.0 °F - 48.0 °F 80% 29.68 in 10.0 mi SW 5.8 mph - 0.00 in   Scattered Clouds
7:54 AM 55.0 °F - 46.0 °F 72% 29.69 in 10.0 mi WSW 6.9 mph - N/A   Partly Cloudy
8:54 AM 57.9 °F - 43.0 °F 58% 29.71 in 10.0 mi WSW 6.9 mph - N/A   Partly Cloudy
9:54 AM 59.0 °F - 37.0 °F 44% 29.71 in 10.0 mi West 11.5 mph 20.7 mph N/A   Clear
10:54 AM 61.0 °F - 37.0 °F 41% 29.70 in 10.0 mi WSW 11.5 mph 20.7 mph N/A   Clear
11:54 AM 62.1 °F - 35.1 °F 37% 29.67 in 10.0 mi West 13.8 mph 21.9 mph N/A   Clear
12:54 PM 63.0 °F - 33.1 °F 33% 29.67 in 10.0 mi West 10.4 mph 20.7 mph N/A   Clear
1:54 PM 63.0 °F - 28.9 °F 28% 29.65 in 10.0 mi West 13.8 mph 21.9 mph N/A   Clear
2:54 PM 62.1 °F - 28.9 °F 29% 29.66 in 10.0 mi West 8.1 mph 20.7 mph N/A   Clear
3:54 PM 61.0 °F - 28.9 °F 30% 29.68 in 10.0 mi WSW 8.1 mph 20.7 mph N/A   Clear
4:54 PM 59.0 °F - 26.1 °F 28% 29.70 in 10.0 mi WSW 8.1 mph 19.6 mph N/A   Clear
5:54 PM 55.9 °F - 25.0 °F 30% 29.72 in 10.0 mi West 6.9 mph - N/A   Clear
6:54 PM 54.0 °F - - N/A% 29.75 in 10.0 mi West 6.9 mph - N/A   Clear
7:54 PM 53.1 °F - - N/A% 29.77 in 10.0 mi West 5.8 mph - N/A   Clear
8:54 PM 51.1 °F - - N/A% 29.79 in 10.0 mi WNW 10.4 mph 17.3 mph N/A   Clear
9:54 PM 50.0 °F - - N/A% 29.81 in 10.0 mi WNW 11.5 mph - N/A   Clear
10:54 PM 48.0 °F - - N/A% 29.83 in 10.0 mi WNW 13.8 mph 23.0 mph N/A   Clear
11:54 PM 46.0 °F 39.6 °F - N/A% 29.85 in 10.0 mi WNW 15.0 mph 23.0 mph N/A   Clear